Weather History for Crane Lake, MN

Change the Weather History Date:

Monday, June 24, 2013

  Actual Average Record
Temperature  
Mean Temperature 66 °F -  
Max Temperature 82 °F 72 °F 86 °F (2001)
Min Temperature 51 °F 51 °F 39 °F (2011)
Cooling Degree Days 2    
Growing Degree Days 16 (Base 50)    
Moisture  
Dew Point 54 °F    
Average Humidity 65    
Maximum Humidity 100    
Minimum Humidity 28    
Precipitation  
Precipitation 0.00 in - - ()
Sea Level Pressure  
Sea Level Pressure 29.81 in    
Wind  
Wind Speed 5 mph (SSW)    
Max Wind Speed 12 mph    
Max Gust Speed 22 mph    
Visibility 10 miles    
Events      
Averages and records for this station are not official NWS values.
T = Trace of Precipitation, MM = Missing Value Source: NWS Daily Summary

Daily Weather History Graph

Daily Weather History Graph

Search for Another Location

Airport:

Trip Planner

Search our weather history database for the weather conditions in past years. The results will help you decide how hot, cold, wet, or windy it might be!

Date:

Astronomy

Jun. 24, 2013 Rise Set
Actual Time 5:10 AM CDT 9:14 PM CDT
Civil Twilight 4:28 AM CDT 9:56 PM CDT
Nautical Twilight 3:29 AM CDT 10:54 PM CDT
Astronomical Twilight 1:43 AM CDT 12:40 AM CDT
Moon 10:05 PM CDT (6/24) 6:47 AM CDT (6/24)
Length of Visible Light 17h 28m
Length of Day
16h 04m
Full, 98% of the Moon is Illuminated
Jun 24
Full
Jun 29
Last Quarter
Jul 8
New
Jul 15
First Quarter
Jul 22
Full

Hourly Weather History & Observations

Time (CDT) Temp. Heat Index Dew Point Humidity Pressure Visibility Wind Dir Wind Speed Gust Speed Precip Events Conditions
12:12 AM 62.6 °F - 59.0 °F 88% 29.79 in 10.0 mi SSW 3.5 mph - N/A   Clear
12:32 AM 62.6 °F - 57.2 °F 82% 29.79 in 10.0 mi SSW 3.5 mph - N/A   Clear
12:52 AM 60.8 °F - 55.4 °F 82% 29.80 in 10.0 mi Calm Calm - N/A   Clear
1:12 AM 60.8 °F - 55.4 °F 82% 29.81 in 10.0 mi SSW 3.5 mph - N/A   Clear
1:32 AM 60.8 °F - 55.4 °F 82% 29.81 in 10.0 mi Calm Calm - N/A   Clear
1:52 AM 57.2 °F - 53.6 °F 88% 29.81 in 10.0 mi South 3.5 mph - N/A   Clear
2:12 AM 55.4 °F - 53.6 °F 94% 29.83 in 10.0 mi South 3.5 mph - N/A   Clear
2:32 AM 55.4 °F - 53.6 °F 94% 29.83 in 10.0 mi South 3.5 mph - N/A   Clear
2:52 AM 55.4 °F - 53.6 °F 94% 29.83 in 10.0 mi South 3.5 mph - N/A   Clear
3:12 AM 55.4 °F - 51.8 °F 88% 29.83 in 10.0 mi South 3.5 mph - N/A   Clear
3:32 AM 53.6 °F - 51.8 °F 94% 29.83 in 10.0 mi South 3.5 mph - N/A   Clear
3:52 AM 51.8 °F - 50.0 °F 94% 29.83 in 10.0 mi South 3.5 mph - N/A   Clear
4:12 AM 51.8 °F - 50.0 °F 94% 29.83 in 10.0 mi South 3.5 mph - N/A   Clear
4:32 AM 51.8 °F - 48.2 °F 88% 29.83 in 10.0 mi South 3.5 mph - N/A   Clear
4:52 AM 51.8 °F - 50.0 °F 94% 29.83 in 10.0 mi South 4.6 mph - N/A   Clear
5:12 AM 53.6 °F - 53.6 °F 100% 29.83 in 10.0 mi South 5.8 mph - N/A   Clear
5:32 AM 53.6 °F - 53.6 °F 100% 29.82 in 10.0 mi South 4.6 mph - N/A   Clear
5:52 AM 55.4 °F - 53.6 °F 94% 29.82 in 10.0 mi South 4.6 mph - N/A   Clear
6:12 AM 55.4 °F - 53.6 °F 94% 29.83 in 10.0 mi South 5.8 mph - N/A   Clear
6:32 AM 55.4 °F - 55.4 °F 100% 29.83 in 10.0 mi South 8.1 mph - N/A   Clear
6:52 AM 59.0 °F - 57.2 °F 94% 29.84 in 10.0 mi South 8.1 mph - N/A   Clear
7:12 AM 60.8 °F - 57.2 °F 88% 29.84 in 10.0 mi South 5.8 mph - N/A   Clear
7:34 AM 64.4 °F - 57.2 °F 77% 29.84 in 10.0 mi South 5.8 mph - N/A   Clear
7:52 AM 64.4 °F - 55.4 °F 73% 29.84 in 10.0 mi South 6.9 mph - N/A   Clear
8:12 AM 66.2 °F - 57.2 °F 73% 29.84 in 10.0 mi South 6.9 mph - N/A   Clear
8:32 AM 68.0 °F - 57.2 °F 68% 29.84 in 10.0 mi South 6.9 mph - N/A   Clear
8:52 AM 69.8 °F - 57.2 °F 64% 29.84 in 10.0 mi South 8.1 mph 17.3 mph N/A   Clear
9:12 AM 71.6 °F - 57.2 °F 60% 29.83 in 10.0 mi South 4.6 mph 20.7 mph N/A   Clear
9:32 AM 71.6 °F - 57.2 °F 60% 29.83 in 10.0 mi SSW 8.1 mph - N/A   Clear
9:52 AM 73.4 °F - 57.2 °F 57% 29.83 in 10.0 mi SSW 6.9 mph 16.1 mph N/A   Clear
10:12 AM 73.4 °F - 57.2 °F 57% 29.83 in 10.0 mi South 10.4 mph 16.1 mph N/A   Clear
10:32 AM 75.2 °F - 57.2 °F 53% 29.83 in 10.0 mi WSW 5.8 mph - N/A   Clear
10:52 AM 75.2 °F - 57.2 °F 53% 29.83 in 10.0 mi South 9.2 mph 16.1 mph N/A   Clear
11:12 AM 77.0 °F - 57.2 °F 50% 29.83 in 10.0 mi SSW 10.4 mph - N/A   Clear
11:32 AM 77.0 °F - 55.4 °F 47% 29.83 in 10.0 mi SSW 10.4 mph - N/A   Clear
11:52 AM 78.8 °F - 55.4 °F 44% 29.83 in 10.0 mi SSW 6.9 mph 18.4 mph N/A   Clear
12:12 PM 78.8 °F - 53.6 °F 42% 29.83 in 10.0 mi SW 11.5 mph 16.1 mph N/A   Clear
12:32 PM 78.8 °F - 53.6 °F 42% 29.82 in 10.0 mi SSW 8.1 mph 18.4 mph N/A   Clear
12:52 PM 80.6 °F 80.3 °F 53.6 °F 39% 29.82 in 10.0 mi South 8.1 mph - N/A   Clear
1:12 PM 80.6 °F 80.3 °F 53.6 °F 39% 29.81 in 10.0 mi SW 8.1 mph 18.4 mph N/A   Clear
1:32 PM 82.4 °F 81.4 °F 53.6 °F 37% 29.80 in 10.0 mi SSW 10.4 mph - N/A   Clear
1:52 PM 82.4 °F - 51.8 °F 35% 29.80 in 10.0 mi SW 5.8 mph - N/A   Scattered Clouds
2:12 PM 82.4 °F - 50.0 °F 32% 29.80 in 10.0 mi SSW 8.1 mph 21.9 mph N/A   Scattered Clouds
2:32 PM 82.4 °F - 51.8 °F 35% 29.79 in 10.0 mi SW 6.9 mph - N/A   Scattered Clouds
2:52 PM 82.4 °F - 50.0 °F 32% 29.80 in 10.0 mi SW 10.4 mph 17.3 mph N/A   Scattered Clouds
3:12 PM 82.4 °F - 48.2 °F 30% 29.80 in 10.0 mi SSW 10.4 mph 16.1 mph N/A   Scattered Clouds
3:32 PM 82.4 °F - 48.2 °F 30% 29.80 in 10.0 mi SSW 10.4 mph 19.6 mph N/A   Scattered Clouds
3:52 PM 82.4 °F - 50.0 °F 32% 29.79 in 10.0 mi SW 5.8 mph - N/A   Scattered Clouds
4:12 PM 82.4 °F - 48.2 °F 30% 29.79 in 10.0 mi South 9.2 mph - N/A   Scattered Clouds
4:32 PM 82.4 °F - 46.4 °F 28% 29.79 in 10.0 mi SW 5.8 mph 17.3 mph N/A   Scattered Clouds
4:52 PM 82.4 °F - 51.8 °F 35% 29.78 in 10.0 mi WSW 4.6 mph - N/A   Scattered Clouds
5:12 PM 82.4 °F - 51.8 °F 35% 29.78 in 10.0 mi SW 8.1 mph - N/A   Scattered Clouds
5:32 PM 82.4 °F - 51.8 °F 35% 29.79 in 10.0 mi SSW 6.9 mph - N/A   Clear
5:52 PM 82.4 °F - 51.8 °F 35% 29.79 in 10.0 mi SW 6.9 mph - N/A   Scattered Clouds
6:12 PM 82.4 °F 81.4 °F 53.6 °F 37% 29.79 in 10.0 mi SSW 5.8 mph - N/A   Scattered Clouds
6:32 PM 82.4 °F 81.4 °F 53.6 °F 37% 29.80 in 10.0 mi SSW 5.8 mph - N/A   Scattered Clouds
6:52 PM 82.4 °F 81.7 °F 55.4 °F 39% 29.80 in 10.0 mi SW 3.5 mph - N/A   Scattered Clouds
7:12 PM 80.6 °F 80.5 °F 55.4 °F 42% 29.80 in 10.0 mi Calm Calm - N/A   Scattered Clouds
7:32 PM 80.6 °F 80.5 °F 55.4 °F 42% 29.80 in 10.0 mi Calm Calm - N/A   Clear
7:52 PM 78.8 °F - 55.4 °F 44% 29.80 in 10.0 mi Calm Calm - N/A   Clear
8:12 PM 73.4 °F - 55.4 °F 53% 29.79 in 10.0 mi Calm Calm - N/A   Clear
8:32 PM 69.8 °F - 55.4 °F 60% 29.79 in 10.0 mi Calm Calm - N/A   Clear
8:52 PM 66.2 °F - 57.2 °F 73% 29.79 in 10.0 mi Calm Calm - N/A   Clear
9:12 PM 64.4 °F - 57.2 °F 77% 29.79 in 10.0 mi Calm Calm - N/A   Clear
9:32 PM 64.4 °F - 57.2 °F 77% 29.80 in 10.0 mi Calm Calm - N/A   Clear
9:52 PM 62.6 °F - 59.0 °F 88% 29.80 in 10.0 mi South 4.6 mph - N/A   Clear
10:12 PM 62.6 °F - 59.0 °F 88% 29.81 in 10.0 mi South 3.5 mph - N/A   Clear
10:32 PM 60.8 °F - 59.0 °F 94% 29.81 in 10.0 mi South 3.5 mph - N/A   Clear
10:52 PM 60.8 °F - 57.2 °F 88% 29.81 in 10.0 mi South 3.5 mph - N/A   Clear
11:12 PM 60.8 °F - 57.2 °F 88% 29.81 in 10.0 mi South 3.5 mph - N/A   Clear
11:32 PM 59.0 °F - 57.2 °F 94% 29.81 in 10.0 mi South 3.5 mph - N/A   Clear
11:52 PM 57.2 °F - 55.4 °F 94% 29.81 in 10.0 mi Calm Calm - N/A   Clear